Regional Weather Roundup
Issued by NWS Burlington, VT

Home | Current Version | Previous Version | Text Only | Print | Product List | Glossary On
Versions: 1 2 3 4 5 6 7 8 9 10 11 12 13 14 15 16 17 18 19 20 21 22 23 24 25 26 27 28 29 30 31 32 33 34 35 36 37 38 39 40 41 42 43 44 45 46 47 48 49 50
000
ASUS41 KBTV 280710
RWRBTV
VERMONT REGIONAL WEATHER ROUNDUP
NATIONAL WEATHER SERVICE BURLINGTON VT
300 AM EDT THU AUG 28 2014

NOTE: "FAIR" INDICATES FEW OR NO CLOUDS BELOW 12,000 FEET WITH NO
SIGNIFICANT WEATHER AND/OR OBSTRUCTIONS TO VISIBILITY.

* THESE REPORTS ARE NOT UNDER NWS QUALITY CONTROL AND/OR DO NOT
  REPORT WEATHER SUCH AS PRECIPITATION AND FOG.

VTZ001>019-280800-
_____VERMONT_____


CITY           SKY/WX    TMP DP  RH WIND       PRES   REMARKS
BURLINGTON     PTSUNNY   66  59  78 NW3       29.89F
MONTPELIER     SUNNY     60  56  86 CALM      29.93F
MORRISVILLE    MOSUNNY   56  54  93 CALM      29.91F
ST. JOHNSBURY*   N/A     58  56  93 MISG      29.86F
MIDDLEBURY*    FAIR      60  60 100 CALM      29.89F
RUTLAND*       CLOUDY    61  59  94 CALM      29.89S
SPRINGFIELD    PTSUNNY   63  61  93 CALM      29.88F
HIGHGATE*      PTSUNNY   61  59  92 CALM      29.89S
NEWPORT*       FAIR      58  55  91 W3        29.90S
BENNINGTON     CLOUDY    63  58  83 CALM      29.90F
SUTTON*          N/A     55 N/A N/A MISG        N/A

_____LAKE CHAMPLAIN_____


CITY           SKY/WX    TMP DP  RH WIND       PRES   REMARKS
COLCHESTER RF*   N/A     66  59  77 NW14        N/A
DIAMOND ISL*     N/A     68  57  68 W16         N/A

$$

NYZ007-026>031-035-052-083-280800-
_____NORTHERN NEW YORK_____


CITY           SKY/WX    TMP DP  RH WIND       PRES   REMARKS
PLATTSBURGH    CLOUDY    62  58  86 W3        29.89F
SARANAC LAKE   MOSUNNY   55  54  96 VRB3      29.93F
MASSENA        CLOUDY    62  58  86 NW5       29.94S
OGDENSBURG*    CLOUDY    63  59  88 N5        29.94S
POTSDAM*       CLOUDY    61  61 100 CALM      29.94S
WATERTOWN      CLOUDY    64  55  72 NW3       29.95F
FT DRUM        PTSUNNY   61  59  93 VRB3      29.95F
ALBANY         PTSUNNY   64  58  80 NW5       29.91F
GLENS FALLS    SUNNY     60  59  96 CALM      29.89F FOG

$$
NHZ002-005-011-280800-
_____NEW HAMPSHIRE_____


CITY           SKY/WX    TMP DP  RH WIND       PRES   REMARKS
LEBANON        SUNNY     60  57  89 CALM      29.87F FOG
KEENE          SUNNY     64  55  72 CALM      29.87F
MT WASHINGTON  FOG       43  43 100 W35         N/A  VSB 1/16
PLYMOUTH       FAIR      61  61  99 CALM      29.85F
WHITEFIELD     SUNNY     56  53  90 CALM      29.88F

$$

_____REGIONAL QUEBEC LOCATIONS_____


CITY           SKY/WX    TMP DP  RH WIND       PRES   REMARKS
MONTREAL       PTSUNNY   66  54  63 NW6       29.90S
QUEBEC CITY    PTSUNNY   61  54  77 SW5       29.83F
SHERBROOKE     MOSUNNY   57  55  94 W2        29.87F

_____REGIONAL ONTARIO LOCATIONS_____


CITY           SKY/WX    TMP DP  RH WIND       PRES   REMARKS
OTTAWA         MOSUNNY   57  55  94 W6        29.95S

______KEY______
VSB  - VISIBILITY IN MILES
WCI  - WIND CHILL INDEX
HX   - HEAT INDEX
$$
NNNN



USA.gov is the U.S. government's official web portal to all federal, state and local government web resources and services.